GEFSGL_500_meanwind_012.txt.gz
Wind_Speed
27 25 24 24 25 25 26 28 29 30 31 31 30 28 27 26 26 26 24 21 21 22 23 24 24 24 24 24 24 25 24 23 21 21 21 21 21 21 23 24 23 24 24
19 19 19 20 21 22 24 24 24 23 21 19 19 20 21 22 21 20 20 19 20 22 23 23 24 23 24 24 24 25 25 24 22 21 21 21 20 21 22 23 24 23 23
10 11 13 14 15 15 14 13 13 12 13 13 14 15 15 16 16 18 19 20 21 22 22 23 23 23 23 23 24 25 25 24 23 22 20 20 20 20 20 22 23 24 23
4 2 2 2 2 3 3 4 5 6 8 10 12 14 16 17 18 19 20 20 21 21 21 22 22 22 23 23 24 25 25 24 23 21 21 20 19 18 17 18 20 22 22
13 11 9 8 6 6 7 8 10 11 12 13 15 16 17 18 19 19 19 20 21 21 21 21 22 22 22 22 23 25 25 24 23 21 20 20 19 17 16 16 18 20 20
10 9 9 8 8 9 10 11 13 14 15 16 16 17 18 19 19 19 20 20 20 20 21 22 22 22 21 22 22 24 25 24 24 23 21 20 20 18 17 15 15 18 20
8 7 7 8 8 9 11 12 14 15 17 18 19 20 21 21 21 21 21 20 20 20 20 21 21 20 20 19 20 21 23 24 24 23 23 22 21 20 18 17 16 15 18
10 9 9 9 10 10 11 12 13 14 16 17 18 20 21 21 22 21 20 20 20 20 20 19 18 17 17 17 16 16 18 21 23 24 23 22 21 20 18 16 14 13 12
12 12 12 12 12 12 13 13 13 14 15 16 17 18 19 20 20 20 19 19 19 19 19 18 17 16 16 15 14 14 14 15 18 20 21 21 20 19 18 17 16 16 16
15 15 15 15 15 15 15 15 15 16 16 17 17 18 18 18 18 18 17 18 18 19 18 18 17 17 17 16 15 14 14 14 14 16 19 19 19 18 18 17 17 17 17
16 16 17 17 18 19 19 20 20 20 19 19 18 18 18 17 17 16 16 16 17 17 17 17 17 18 18 17 17 16 16 14 13 13 14 16 16 16 15 16 16 16 16
17 17 19 20 21 23 24 24 25 24 22 20 19 18 17 16 15 14 14 14 15 16 16 17 17 18 18 18 18 18 17 15 14 13 12 11 11 11 12 12 13 14 15
17 18 20 22 24 25 26 27 28 26 23 19 17 15 14 13 12 12 12 13 13 14 14 15 16 17 18 18 18 17 16 15 15 13 11 9 8 8 7 8 9 11 13
17 18 20 22 24 26 27 28 29 27 25 21 17 15 13 11 9 9 9 10 10 10 11 13 15 16 16 17 17 17 16 14 13 12 10 9 7 5 5 5 7 10 13
17 18 19 21 24 26 27 28 29 28 27 25 22 19 16 14 12 11 10 10 9 9 10 10 9 10 11 13 14 15 15 13 10 9 9 8 6 3 3 5 8 10 13
16 17 18 20 22 25 26 27 28 28 28 28 27 25 22 20 18 16 15 14 14 12 10 8 5 1 4 9 12 13 14 12 10 10 9 7 4 2 4 6 8 10 13
16 17 18 19 21 24 26 26 27 27 27 27 27 27 26 25 24 22 21 20 19 19 17 15 13 13 13 14 15 15 15 13 12 10 8 5 2 1 3 6 8 10 12
16 17 17 18 19 21 24 25 25 25 26 26 26 27 27 27 27 25 25 25 25 25 24 24 23 21 21 20 19 18 17 15 12 9 7 5 4 3 4 6 8 10 13
16 17 17 18 19 19 21 22 23 24 24 24 24 25 25 26 26 26 26 26 27 27 28 28 27 26 25 23 22 20 17 15 12 10 8 7 6 6 6 8 10 13 15
16 17 18 19 19 19 19 20 21 22 22 22 22 22 22 23 23 24 24 25 25 26 26 26 26 25 24 23 21 19 17 15 12 10 9 8 7 8 9 10 12 15 17
14 17 18 19 18 18 18 18 19 19 20 19 19 19 19 20 20 20 21 21 21 21 21 22 21 21 20 19 18 16 14 12 11 10 9 9 9 10 11 12 14 16 19
11 14 17 18 18 18 17 17 17 17 17 18 18 18 18 18 18 18 18 18 17 17 17 17 16 16 15 14 13 12 11 10 9 9 9 9 10 11 12 14 15 17 18
9 11 15 17 18 17 16 16 16 16 15 15 16 17 17 17 17 17 17 17 16 16 16 15 15 14 13 12 11 10 9 8 8 8 9 9 10 11 13 14 15 16 18
7 9 12 15 16 17 16 15 15 15 15 15 14 15 15 15 16 16 17 17 17 17 16 16 15 15 14 14 13 12 11 10 10 10 10 10 11 11 12 13 15 16 18
6 7 9 11 13 14 15 15 15 14 14 14 14 14 14 14 14 15 16 16 17 17 17 17 17 17 17 17 17 16 15 14 14 13 12 12 11 11 12 13 14 16 17
5 6 7 9 10 12 13 13 14 14 14 14 13 13 13 13 13 13 14 14 15 15 16 16 16 16 17 17 17 17 17 16 16 15 15 14 12 12 12 12 14 15 16

GEFSGL_500_meanwind_018.txt.gz
Wind_Speed
30 32 34 35 36 36 36 35 34 33 32 31 31 31 31 32 32 32 32 33 34 34 34 33 33 33 33 33 32 31 29 28 27 25 23 22 21 20 19 19 19 20 21
17 19 21 22 23 24 25 25 26 26 27 27 27 26 26 26 26 27 28 29 30 31 32 31 31 30 29 28 28 28 27 25 25 23 21 20 20 20 19 19 19 19 21
3 5 7 9 11 12 14 15 17 18 19 19 18 18 18 19 19 19 21 23 24 26 26 26 26 25 25 24 25 25 24 23 22 22 20 20 20 20 19 19 19 20 21
12 10 8 6 5 5 5 6 7 7 8 9 10 11 12 14 15 16 17 17 18 19 19 19 20 20 21 22 22 22 22 21 21 20 20 19 20 20 20 19 19 20 21
16 15 14 12 11 10 9 9 9 9 9 10 11 12 13 14 15 15 16 16 16 16 16 17 17 18 18 20 20 20 19 19 19 19 20 19 20 20 20 19 19 18 19
16 15 14 13 13 12 12 11 11 12 12 12 13 13 14 15 15 16 17 17 18 18 18 18 19 19 19 20 20 19 19 18 18 19 20 20 20 20 20 19 18 17 17
17 17 16 16 15 15 14 14 14 14 14 14 15 15 16 16 16 17 17 18 18 19 19 20 21 21 21 21 20 19 18 18 18 19 20 20 21 21 20 20 18 16 15
19 18 18 18 17 17 17 17 16 16 17 17 18 18 18 18 18 17 17 17 18 19 19 21 22 22 22 21 20 18 17 17 17 18 18 19 20 20 20 19 18 17 16
19 19 19 19 19 18 18 18 18 18 18 18 19 19 19 18 18 17 17 17 17 18 19 20 21 22 22 21 19 18 16 15 15 15 15 16 17 18 18 18 17 16 16
19 20 21 21 21 21 20 20 18 18 18 18 17 16 16 16 15 15 15 16 16 17 18 19 20 20 20 19 19 18 16 14 13 13 12 12 13 14 15 16 16 15 15
20 21 22 23 23 23 22 21 20 19 19 18 16 15 14 12 12 12 13 14 15 15 16 17 18 19 19 19 17 17 16 15 13 12 11 11 10 11 12 13 14 14 14
20 21 22 23 24 25 25 24 22 22 21 20 18 16 14 12 11 10 11 11 12 12 13 14 15 16 17 17 17 16 15 14 13 12 10 9 9 9 9 11 11 12 11
19 20 22 23 24 25 25 25 25 24 24 23 21 19 17 15 13 12 11 9 8 8 9 10 12 13 14 15 15 15 14 14 13 11 10 8 7 7 7 7 7 7 7
18 19 21 22 24 25 25 25 25 26 26 25 24 23 21 19 17 15 13 11 8 6 6 7 9 11 12 13 14 14 14 13 12 11 10 9 7 6 5 4 4 3 3
18 18 20 21 22 23 24 25 25 26 26 26 27 27 27 25 23 22 20 17 13 8 3 2 6 9 11 13 13 12 12 11 11 10 10 9 7 5 4 3 2 0 1
17 18 18 19 20 22 23 24 25 25 26 26 27 28 29 29 29 28 27 25 22 17 13 11 10 10 11 12 12 12 12 12 11 10 9 9 8 6 5 4 4 4 4
17 18 18 18 19 20 21 22 23 24 24 25 26 27 28 30 31 31 31 30 28 26 24 21 18 17 15 15 15 15 14 13 12 11 11 10 9 8 7 7 6 6 6
17 17 17 17 18 18 19 20 21 22 22 23 24 25 27 28 30 31 31 31 31 30 28 26 24 22 20 19 18 17 16 15 14 13 12 11 10 10 9 8 8 7 7
16 17 17 17 17 17 18 19 20 21 21 22 23 23 24 25 26 27 28 29 29 29 28 27 26 24 22 21 20 19 17 16 14 14 13 12 11 10 9 8 8 7 8
14 16 17 17 17 17 17 17 18 19 20 21 21 22 22 23 23 24 24 25 25 25 25 24 24 23 22 21 19 18 17 16 16 14 13 12 11 10 9 8 8 8 9
12 14 16 16 16 16 16 16 17 17 18 19 20 20 21 21 21 21 21 21 21 21 21 20 20 19 18 18 17 16 16 15 14 12 11 10 10 9 8 8 8 8 9
9 11 13 14 15 15 15 15 16 16 17 17 18 18 19 19 20 20 20 20 19 19 18 17 16 16 14 14 13 12 12 11 10 9 9 8 8 8 7 8 8 9 10
7 9 10 12 13 14 14 15 15 15 16 16 16 16 17 18 18 19 19 19 19 19 19 18 17 17 15 14 13 11 10 9 9 8 8 8 7 7 7 7 7 8 10
7 8 9 10 10 11 12 13 14 14 14 14 14 14 15 15 16 17 17 18 18 19 19 19 19 19 18 17 16 14 13 12 10 9 9 8 7 6 6 6 7 8 9
8 8 8 9 9 10 10 11 12 12 12 13 12 12 12 12 13 14 14 15 16 16 17 17 18 18 18 18 17 16 15 14 13 11 9 7 6 5 5 6 7 7 8
9 9 9 9 9 9 9 9 10 10 10 11 10 10 10 10 10 10 10 11 12 13 13 14 14 15 15 15 15 15 14 13 12 11 9 8 7 6 6 6 6 7 9

GEFSGL_500_meanwind_024.txt.gz
Wind_Speed
4 7 10 12 15 18 20 22 25 28 30 31 32 33 34 34 34 34 34 33 33 33 34 35 34 34 34 33 33 33 33 32 32 32 31 30 30 31 30 29 28 26 26
6 3 1 2 4 7 10 13 15 17 19 21 23 24 25 26 27 28 29 30 31 32 32 34 34 33 33 33 33 33 33 33 33 32 31 29 29 28 28 27 27 26 26
13 11 9 7 5 3 3 4 6 8 10 12 13 15 17 18 20 21 23 24 25 27 30 31 32 32 32 32 33 33 33 32 32 31 29 28 26 26 25 25 25 25 25
17 15 14 12 10 9 7 5 5 5 6 7 9 10 11 13 14 16 17 18 20 23 25 27 28 30 30 30 30 29 29 29 28 27 26 24 24 23 23 24 24 24 25
18 17 16 14 12 11 9 8 7 7 8 8 9 10 11 13 14 15 15 16 17 18 19 20 21 22 22 23 24 24 24 24 24 23 22 21 21 21 22 22 23 23 23
19 18 17 16 14 12 11 10 10 10 11 11 12 13 14 14 15 16 16 16 16 16 16 15 16 16 16 16 17 18 18 19 19 18 18 19 19 19 20 21 21 22 22
20 20 19 17 16 15 14 13 12 12 12 12 12 12 13 13 14 16 17 17 18 17 16 15 14 14 13 13 13 13 14 14 15 15 16 16 17 18 19 20 20 21 20
21 21 21 20 19 18 17 16 15 14 14 13 13 13 13 13 13 13 14 16 17 18 18 17 17 16 15 15 13 12 13 13 13 13 14 15 16 16 17 18 19 19 19
21 22 23 23 22 21 20 18 18 17 17 16 16 15 14 13 12 12 12 12 14 17 18 18 18 18 18 17 17 16 15 13 13 13 14 15 15 15 16 17 17 18 18
21 22 23 24 24 23 22 21 21 21 20 20 19 18 16 15 13 11 10 10 12 14 16 17 18 19 19 19 18 16 15 14 13 12 12 12 13 13 14 14 15 15 15
20 22 23 24 24 24 23 23 23 23 23 23 22 21 19 17 14 12 10 9 10 11 13 15 17 18 18 18 17 16 14 13 12 11 11 11 11 11 11 11 11 11 11
20 22 23 24 24 24 24 24 24 24 25 25 25 24 22 20 17 14 11 8 7 8 10 13 14 15 16 16 16 14 13 12 11 10 9 8 8 8 7 7 7 7 7
20 21 22 23 24 24 24 24 24 25 26 27 27 27 26 24 21 17 13 9 5 3 6 9 12 14 15 16 15 14 13 11 10 9 7 6 6 6 5 4 3 3 3
19 20 21 22 23 23 23 24 24 25 26 27 28 28 28 27 25 23 19 14 8 4 3 6 9 12 14 14 13 12 13 11 10 9 7 6 5 5 4 4 4 4 4
19 20 20 21 22 23 23 24 24 25 26 27 27 28 29 29 28 27 24 21 17 13 11 11 12 13 14 14 13 12 12 11 10 8 7 7 6 6 6 6 6 6 6
20 20 20 21 21 22 23 24 25 25 26 26 27 28 28 29 29 29 27 26 23 20 18 17 16 15 15 14 13 12 12 11 10 9 8 8 8 9 9 9 9 9 9
19 20 21 21 21 22 23 24 25 25 26 26 26 26 27 27 28 28 28 27 26 24 22 20 18 17 16 15 14 13 13 12 11 10 11 11 11 11 11 11 11 10 9
18 19 20 21 21 22 22 23 24 25 25 26 25 25 25 26 26 26 27 27 26 26 24 22 21 19 18 17 16 16 15 14 14 14 14 13 13 13 12 12 11 9 8
15 17 19 20 20 21 22 22 23 24 24 25 25 24 24 24 24 24 24 25 26 26 25 24 23 22 21 20 19 19 18 17 16 16 15 14 14 13 12 10 9 8 7
13 14 16 18 19 20 21 22 22 23 23 23 23 23 23 23 22 22 22 22 22 23 24 24 23 22 22 21 20 19 19 18 17 16 15 14 12 11 10 9 8 7 6
10 12 14 15 17 18 19 20 21 21 22 22 22 22 21 22 22 21 21 20 19 19 19 19 20 19 19 19 18 18 17 16 15 14 13 11 10 9 8 7 6 6 5
8 10 11 13 14 15 17 18 19 20 20 20 20 20 20 20 20 21 21 20 19 18 17 16 16 16 15 15 14 14 13 13 12 11 10 9 9 8 7 6 5 5 5
9 9 9 10 11 12 13 15 16 17 17 18 18 18 17 17 18 19 20 20 20 19 18 16 15 14 13 12 12 11 11 10 10 9 9 8 7 7 6 5 4 5 5
10 10 10 10 10 10 11 11 12 13 14 15 15 15 15 14 14 15 16 17 18 18 18 18 17 16 14 13 12 11 10 10 9 9 8 7 6 5 4 3 4 5 6
11 11 11 11 10 10 10 10 10 10 11 11 12 12 12 11 11 11 11 12 13 14 15 15 16 15 15 14 13 12 11 10 9 8 6 5 4 4 3 4 6 7 9
13 13 13 12 12 11 10 10 9 9 9 9 9 9 9 9 8 7 7 7 7 8 9 10 11 11 11 11 11 10 9 8 7 7 6 5 5 6 6 8 9 10 12

GEFSGL_500_meanwind_030.txt.gz
Wind_Speed
11 7 5 1 4 7 10 14 17 19 22 24 27 29 31 33 34 35 36 37 38 39 39 39 38 37 37 36 36 35 36 36 36 36 36 34 33 31 30 30 30 30 30
14 12 9 6 2 1 5 8 12 15 18 21 24 26 29 32 34 36 37 38 39 40 40 40 40 39 37 37 37 36 36 36 35 35 34 32 31 30 29 29 28 29 28
16 14 12 9 6 3 2 4 6 9 12 15 18 21 24 26 29 31 32 34 35 36 37 38 38 38 38 37 37 37 36 35 34 33 31 31 30 29 28 28 27 26 26
19 17 15 12 9 7 5 3 3 5 7 10 12 14 16 18 21 23 24 26 28 29 30 32 33 34 35 36 37 37 35 34 33 32 31 29 29 28 27 26 25 24 24
20 19 17 15 12 10 8 6 5 4 5 7 9 12 14 16 17 19 21 22 23 24 25 26 27 28 30 32 33 33 32 31 32 31 29 27 26 25 24 23 22 22 20
22 21 19 18 16 14 12 11 10 8 7 7 8 9 11 13 15 17 19 20 21 22 22 23 24 24 25 27 28 29 29 28 28 28 27 25 24 23 22 21 20 19 18
21 21 20 19 18 16 15 14 13 12 11 11 10 10 12 13 15 16 17 18 19 19 20 20 20 21 22 21 20 21 23 24 23 23 22 21 21 20 20 19 18 18 17
21 21 20 20 19 17 16 15 15 15 14 14 14 14 14 14 15 16 17 18 18 18 18 19 19 18 18 17 15 16 18 19 19 20 19 18 18 18 17 17 17 16 15
21 20 20 19 19 18 17 16 16 16 17 17 17 17 16 16 16 15 16 16 17 17 17 18 18 18 17 16 15 14 14 14 16 17 17 16 15 15 14 14 14 13 13
20 20 20 19 19 18 18 17 17 17 18 19 19 19 19 17 16 14 13 14 15 16 17 18 19 19 18 17 16 14 12 13 13 13 14 14 13 13 13 13 12 12 11
19 19 19 19 19 19 19 19 19 19 20 20 20 21 21 20 17 14 11 11 11 13 15 17 17 18 19 17 16 14 11 11 11 11 12 12 12 11 11 11 10 10 9
19 19 19 20 20 20 20 20 20 20 21 21 21 22 23 21 19 14 10 6 6 8 12 15 17 19 19 18 15 12 10 10 11 11 11 11 10 10 10 9 8 8 8
19 19 20 21 21 22 22 21 21 21 22 22 22 23 23 23 20 16 11 6 1 4 9 12 15 17 17 16 14 12 11 11 10 10 10 10 10 10 9 9 8 8 8
19 19 20 21 22 22 22 22 22 22 23 23 23 23 24 24 23 19 15 12 8 7 9 12 15 16 16 16 15 13 12 12 11 10 10 9 10 10 10 9 8 9 9
19 20 20 21 22 22 22 23 23 23 23 24 23 24 25 25 24 23 20 17 15 14 14 14 15 15 15 15 15 15 14 13 12 11 11 11 10 10 10 10 10 10 10
18 20 20 21 22 22 22 23 23 23 23 23 23 23 24 25 25 24 23 21 19 18 17 16 16 16 16 16 17 16 15 13 13 12 12 11 11 11 12 12 11 11 11
17 18 20 21 22 22 22 23 23 23 23 23 23 23 23 24 25 25 24 23 21 20 19 19 18 17 17 17 16 16 15 14 13 13 12 12 12 13 13 13 13 12 11
14 16 18 20 21 21 22 22 23 23 23 23 23 22 22 23 24 25 24 23 22 21 20 19 18 18 17 17 16 16 15 14 14 14 14 14 14 14 14 13 12 11 10
12 14 16 18 19 20 21 21 22 22 22 23 23 22 21 21 22 23 23 23 22 22 21 20 19 18 17 17 16 16 16 15 16 15 15 15 15 14 13 12 11 10 8
10 11 13 14 16 18 19 20 20 20 21 21 22 22 22 21 20 20 21 21 21 21 21 20 19 19 18 17 17 17 17 16 16 16 16 15 14 13 12 11 9 8 7
9 9 10 12 13 14 16 17 18 18 19 19 20 21 21 21 20 19 18 18 18 18 18 18 18 17 17 17 17 16 16 16 16 15 14 13 12 11 10 9 8 6 5
9 9 9 10 10 11 12 14 15 16 16 16 17 18 19 19 20 20 19 17 16 16 15 15 15 15 15 15 15 14 14 13 13 12 12 11 10 9 8 7 6 6 5
9 9 9 9 9 9 9 10 11 12 13 13 13 14 14 15 16 17 17 17 16 15 14 13 13 12 12 12 12 11 11 10 10 10 9 9 8 7 6 5 5 4 3
10 10 10 9 9 8 8 8 8 8 9 10 10 10 10 10 11 12 13 14 14 14 13 12 11 11 10 10 9 9 9 8 8 8 7 6 6 5 4 3 3 2 3
11 11 11 11 10 10 9 9 8 7 7 7 7 7 7 7 6 6 7 8 9 9 10 9 9 9 8 8 7 7 7 6 6 6 5 4 3 2 2 3 4 6 7
13 13 12 12 12 12 12 11 10 9 9 8 7 6 6 5 5 4 4 3 3 3 3 3 4 4 4 4 3 3 3 3 3 3 2 2 3 4 5 7 8 9 11